Powrót do katalogu

STARLINK-31645

AktywnyŁącznośćVLEO
NORAD 59264·PAYLOAD·🇺🇸 United States

Wystrzelony Mar 19, 2024 z Vandenberg Space Force Base

Loading…

Następne Przeloty (najbliższe 24 godziny)

TLE

ŚwieżeSource: CelesTrak SupGP

Epoka: Sep 14, 2026, 22:47 UTC

1 59264C 24050L   26257.94979167 -.00001150  00000+0 -33993-4 0  2577
2 59264  53.1605  19.7088 0001133  87.4129 358.1132 15.34384007    19

Śledź STARLINK-31645 w czasie rzeczywistym z AllMySat

Download on the App Store